World > North America > United States > New York

Hourly Walker Valley, NY Regional Weather

Feedback E-mail the Weather

Latest News

Walker Valley, NY Weather Maps

°F °C°F °C
Walker Valley Weather Map
UTC Time: 5/26/2022, 18:01
Your Time:

Walker Valley, NY Regional Weather

Expires:202205261700;;611963
ASUS41 KALY 261610
RWRALY

NEW YORK STATE HOURLY WEATHER ROUNDUP
NATIONAL WEATHER SERVICE ALBANY NY
1200 PM EDT THU MAY 26 2022

NOTE: "FAIR" INDICATES FEW OR NO CLOUDS BELOW 12,000 FEET WITH NO
SIGNIFICANT WEATHER AND/OR NO OBSTRUCTIONS TO VISIBILITY.


NYZ032-033-038>043-046>054-057>066-NYZ062>081-082-084-261700-
EAST

  
CITY           SKY/WX    TMP DP  RH WIND       PRES   REMARKS
ALBANY         PTSUNNY   68  43  40 S22G30    30.19F                  
GLENS FALLS    MOSUNNY   67  39  35 S18G28    30.17F                  
POUGHKEEPSIE   PTSUNNY   67  49  52 SW12G17   30.25F                  
NEWBURGH       PTSUNNY   66  52  59 SW9       30.26F                  
MONTGOMERY     MOSUNNY   66  50  56 SW12G20   30.25F                  
WHITE PLAINS   MOSUNNY   65  51  60 SE10      30.28F                  
ISLIP          CLOUDY    64  54  69 SE13      30.31F                  
NEW YORK CITY  PTSUNNY   66  49  54 S13       30.29F                  
CENTRAL PARK   SUNNY     67  50  54 VRB6      30.32F                  
$$


SKY/WX - Weather  TMP - Temperature  DP - Dew Point  RH - Humidity
WIND - Wind Direction/Speed PRES - Barometric Pressure VSB - Visibility
WCI - Wind Chill Index E13G22 Wind - East Wind 13 mph/Gusts of 22 mph

Trending Headlines

Walker Valley Radar Loop



Walker Valley Quick Facts


National Two Day Weather Forecast


E-mail the Walker Valley Weather Forecast

Voice your opinion or tell us about page issues...